Location: A�t Bou Chrif
(32.7193°N, 5.2385°W)
Time: 03:13:17
(UTC+00:00)

Cosmos 1140 Rocket - Pass Details

Date: 08 August 2020
Orbit: 745 x 767 km, 74.1° (Epoch: 20 September)

Event Time Altitude Azimuth Distance (km) Brightness Sun altitude
Exits shadow 20:40:38 - 181° (S) 2,386 5.8 -17.4°
Reaches altitude 10° 20:40:53 10° 180° (S) 2,290 5.7 -17.5°
Maximum altitude 20:45:58 56° 103° (ESE) 903 3.5 -18.4°
Drops below altitude 10° 20:51:05 10° 26° (NNE) 2,308 6.1 -19.3°
Sets 20:53:30 0° 22° (NNE) 3,238 6.9 -19.7°
